Location: eljas
(40.1958°N, 6.8661°W)
Time: 15:15:18
(UTC+01:00)

Amateur Radio Satellites - All Passes

Search period start: 31 October 2014 14:45
Search period end: 01 November 2014 14:45
Location: eljas, 40.1958°N, 6.8661°W

Satellite Date Start Highest point End Downlink Frequencies (MHz)
Time Altitude Azimuth
UOSAT-12 31 Oct 14:45:22 14:49:26 29° 312° (NW) 14:53:34 437.025 FM, 437.400 FM
AO-27 31 Oct 14:54:39 14:59:52 88° 256° (WSW) 15:05:08 436.795 MHz FM
Oscar 16 31 Oct 15:07:08 15:11:30 28° 264° (W) 15:15:52 437.025 USB, Beacon 2401.1428
Gurwin Techsat 1B 31 Oct 15:08:46 15:14:01 65° 73° (ENE) 15:19:17 435.225 FM
AO-7 31 Oct 15:14:56 15:21:23 26° 55° (NE) 15:27:49 29.400 - 29.500 MHz
TMSAT-1 31 Oct 15:15:23 15:20:33 55° 72° (ENE) 15:25:44 436.925 FM
Saudisat 1A 31 Oct 15:21:31 15:25:56 71° 56° (ENE) 15:30:20 436.775 MHz
Uribyol 2 31 Oct 15:39:17 15:43:57 33° 263° (W) 15:48:38 436.500 FM
AO-Echo 31 Oct 15:44:13 15:48:12 24° 267° (W) 15:52:18 ?
ITAMSAT 1 31 Oct 15:47:23 15:51:54 29° 264° (W) 15:56:26 435.822 SSB
JAS-1B 31 Oct 15:50:17 15:53:46 16° 269° (W) 15:57:13 435.800 - 435.900 CW/SSB
ISS 31 Oct 15:54:52 15:57:20 19° 20° (NNE) 15:59:47 145.800 FM
Uosat F 31 Oct 15:57:12 16:00:48 20° 64° (ENE) 16:04:26 435.120 FM
JAS-2 31 Oct 16:35:31 16:39:48 19° 56° (NE) 16:44:22 435.800 - 435.900 CW/SSB, 435.910 FM
Gurwin Techsat 1B 31 Oct 16:51:27 16:54:25 15° 269° (W) 16:57:24 435.225 FM
TMSAT-1 31 Oct 16:57:17 17:00:47 18° 268° (W) 17:04:19 436.925 FM
Saudisat 1A 31 Oct 17:03:26 17:04:54 12° 252° (WSW) 17:06:21 436.775 MHz
AO-7 31 Oct 17:05:09 17:13:24 74° 254° (WSW) 17:21:43 29.400 - 29.500 MHz
Hamsat 31 Oct 17:16:18 17:18:19 13° 65° (ENE) 17:20:20 145.90 MHz
ISS 31 Oct 17:31:02 17:34:23 87° 218° (SW) 17:37:44 145.800 FM
Uosat F 31 Oct 17:34:22 17:39:13 48° 260° (W) 17:44:07 435.120 FM
KITSAT 1 31 Oct 17:59:20 18:03:12 14° 24° (NNE) 18:07:03 435.175 FM
OPAL 31 Oct 18:03:58 18:07:57 24° 97° (E) 18:11:56 ?
JAS-2 31 Oct 18:17:33 18:23:47 82° 257° (WSW) 18:30:56 435.800 - 435.900 CW/SSB, 435.910 FM
AO-40 31 Oct 18:47:30 00:57:51 46° 182° (S) 05:13:42 Beacon 2401.320
Hamsat 31 Oct 18:49:44 18:53:49 52° 260° (W) 18:57:54 145.90 MHz
AO-7 31 Oct 19:04:19 19:07:28 12° 272° (W) 19:10:38 29.400 - 29.500 MHz
SO-50 31 Oct 19:11:57 19:14:46 15° 40° (NE) 19:17:36 436.795 FM
HO-68 31 Oct 19:39:47 19:43:29 15° 53° (NE) 19:47:11 435.675 MHz FM
SO-67 31 Oct 19:42:07 19:45:33 76° 76° (ENE) 19:48:59 435.3500 MHz FM
OPAL 31 Oct 19:42:23 19:46:55 37° 293° (WNW) 19:51:26 ?
KITSAT 1 31 Oct 19:53:28 20:01:07 43° 50° (NE) 20:08:42 435.175 FM
STRAND 1 31 Oct 19:59:33 20:04:32 47° 100° (E) 20:09:27 ?
JAS-2 31 Oct 20:07:50 20:10:07 12° 277° (W) 20:12:29 435.800 - 435.900 CW/SSB, 435.910 FM
RS-15 31 Oct 20:25:53 20:34:41 29° 104° (ESE) 20:43:21 29.354 - 29.394 USB, Beacon 29.352 USB
SO-50 31 Oct 20:51:07 20:56:00 90° 236° (SW) 21:00:54 436.795 FM
UKube-1 31 Oct 20:59:11 21:00:38 12° 62° (ENE) 21:02:05 145.840 MHz, 145.915 MHz
HO-68 31 Oct 21:22:52 21:30:00 76° 71° (ENE) 21:37:12 435.675 MHz FM
Oscar 11 31 Oct 21:31:53 21:35:16 23° 68° (ENE) 21:38:40 145.825 FM, Beacon 2401.500 USB
UOSAT-12 31 Oct 21:35:06 21:39:12 28° 48° (NE) 21:43:13 437.025 FM, 437.400 FM
STRAND 1 31 Oct 21:39:34 21:43:22 21° 296° (WNW) 21:47:09 ?
KITSAT 1 31 Oct 21:48:58 21:56:32 46° 250° (WSW) 22:04:03 435.175 FM
FUNcube-1 31 Oct 21:49:32 21:52:19 16° 65° (ENE) 21:55:04 145.950 - 145.970 MHz USB
MaSat-1 31 Oct 22:09:00 22:12:19 26° 110° (ESE) 22:15:23 437.345 MHz
UKube-1 31 Oct 22:31:53 22:36:13 69° 258° (WSW) 22:40:35 145.840 MHz, 145.915 MHz
RS-15 31 Oct 22:34:56 22:45:55 75° 304° (NW) 22:56:55 29.354 - 29.394 USB, Beacon 29.352 USB
SO-50 31 Oct 22:35:22 22:35:49 10° 254° (WSW) 22:36:17 436.795 FM
ZACube-1 31 Oct 22:40:59 22:45:26 57° 74° (ENE) 22:49:48 437.345 MHz
Oscar 11 31 Oct 23:07:30 23:11:18 30° 264° (W) 23:15:07 145.825 FM, Beacon 2401.500 USB
HO-68 31 Oct 23:13:33 23:18:22 19° 269° (W) 23:23:13 435.675 MHz FM
UOSAT-12 31 Oct 23:15:05 23:19:23 36° 245° (WSW) 23:23:36 437.025 FM, 437.400 FM
FUNcube-1 31 Oct 23:23:55 23:28:19 48° 261° (W) 23:32:38 145.950 - 145.970 MHz USB
MaSat-1 31 Oct 23:44:42 23:47:40 21° 302° (WNW) 23:50:25 437.345 MHz
ZACube-1 01 Nov 00:20:01 00:22:07 13° 269° (W) 00:24:14 437.345 MHz
RS-15 01 Nov 00:51:47 01:00:31 26° 332° (NNW) 01:09:21 29.354 - 29.394 USB, Beacon 29.352 USB
JAS-1B 01 Nov 01:40:23 01:45:35 20° 93° (E) 01:51:20 435.800 - 435.900 CW/SSB
Oscar 16 01 Nov 01:41:42 01:43:37 12° 90° (E) 01:45:32 437.025 USB, Beacon 2401.1428
Sapphire 01 Nov 01:51:44 01:55:20 18° 105° (ESE) 01:58:56 437.095 MHz 1200 baud AX-25 AFSK
PCSat 01 Nov 02:12:04 02:16:44 31° 109° (ESE) 02:21:27 145.825 MHz
AO-Echo 01 Nov 02:14:00 02:16:42 14° 90° (E) 02:19:21 ?
Uribyol 2 01 Nov 02:16:40 02:17:00 10° 88° (E) 02:17:21 436.500 FM
ITAMSAT 1 01 Nov 02:23:20 02:25:08 12° 89° (E) 02:26:55 435.822 SSB
Oscar 19 01 Nov 02:31:29 02:36:14 38° 98° (E) 02:40:58 437.125 CW, 437.150 USB
AO-27 01 Nov 03:08:38 03:13:23 34° 97° (E) 03:18:06 436.795 MHz FM
RS-15 01 Nov 03:10:59 03:18:20 19° 9° (N) 03:25:48 29.354 - 29.394 USB, Beacon 29.352 USB
Oscar 16 01 Nov 03:18:23 03:23:31 75° 285° (WNW) 03:28:37 437.025 USB, Beacon 2401.1428
Gurwin Techsat 1B 01 Nov 03:26:05 03:30:34 27° 95° (E) 03:35:01 435.225 FM
JAS-1B 01 Nov 03:29:20 03:36:31 80° 286° (WNW) 03:45:09 435.800 - 435.900 CW/SSB
TMSAT-1 01 Nov 03:32:29 03:36:38 23° 94° (E) 03:40:46 436.925 FM
Sapphire 01 Nov 03:32:54 03:38:14 60° 302° (WNW) 03:43:36 437.095 MHz 1200 baud AX-25 AFSK
AO-Echo 01 Nov 03:50:38 03:55:57 71° 286° (WNW) 04:01:10 ?
Uribyol 2 01 Nov 03:51:54 03:57:08 88° 285° (WNW) 04:02:19 436.500 FM
PCSat 01 Nov 03:55:02 04:00:01 37° 307° (NW) 04:05:04 145.825 MHz
ITAMSAT 1 01 Nov 03:59:58 04:05:12 79° 285° (WNW) 04:10:23 435.822 SSB
Oscar 19 01 Nov 04:11:14 04:15:23 26° 294° (WNW) 04:19:31 437.125 CW, 437.150 USB
AO-27 01 Nov 04:48:20 04:52:46 29° 294° (WNW) 04:57:10 436.795 MHz FM
PANSAT 01 Nov 05:05:17 05:06:54 12° 171° (S) 05:08:31 not established
Gurwin Techsat 1B 01 Nov 05:05:44 05:10:35 37° 291° (WNW) 05:15:24 435.225 FM
AO-7 01 Nov 05:07:32 05:15:15 40° 99° (E) 05:22:56 29.400 - 29.500 MHz
TMSAT-1 01 Nov 05:11:43 05:16:43 43° 290° (WNW) 05:21:41 436.925 FM
OPAL 01 Nov 05:18:01 05:22:49 43° 68° (ENE) 05:27:34 ?
Sapphire 01 Nov 05:21:12 05:22:50 11° 322° (NW) 05:24:28 437.095 MHz 1200 baud AX-25 AFSK
JAS-1B 01 Nov 05:22:20 05:26:20 16° 302° (WNW) 05:30:40 435.800 - 435.900 CW/SSB
RS-15 01 Nov 05:24:40 05:35:00 41° 42° (NE) 05:45:39 29.354 - 29.394 USB, Beacon 29.352 USB
Saudisat 1A 01 Nov 05:28:22 05:31:36 20° 111° (ESE) 05:34:50 436.775 MHz
JAS-2 01 Nov 05:28:50 05:34:05 19° 87° (E) 05:39:11 435.800 - 435.900 CW/SSB, 435.910 FM
Uribyol 2 01 Nov 05:34:11 05:35:47 11° 302° (WNW) 05:37:23 436.500 FM
Uosat F 01 Nov 05:42:27 05:47:25 54° 101° (E) 05:52:19 435.120 FM
ITAMSAT 1 01 Nov 05:43:10 05:43:48 10° 303° (WNW) 05:44:25 435.822 SSB
Hamsat 01 Nov 06:36:02 06:39:39 27° 96° (E) 06:43:16 145.90 MHz
PANSAT 01 Nov 06:44:18 06:46:19 14° 184° (S) 06:48:21 not established
OPAL 01 Nov 06:57:55 07:01:50 22° 264° (W) 07:05:44 ?
AO-7 01 Nov 07:00:16 07:08:04 46° 297° (WNW) 07:15:52 29.400 - 29.500 MHz
Saudisat 1A 01 Nov 07:06:44 07:10:52 41° 308° (NW) 07:15:03 436.775 MHz
JAS-2 01 Nov 07:11:59 07:19:55 85° 285° (WNW) 07:27:30 435.800 - 435.900 CW/SSB, 435.910 FM
STRAND 1 01 Nov 07:14:49 07:19:53 65° 73° (ENE) 07:25:00 ?
Uosat F 01 Nov 07:22:21 07:25:45 18° 297° (WNW) 07:29:08 435.120 FM
RS-15 01 Nov 07:37:00 07:48:02 67° 245° (WSW) 07:59:35 29.354 - 29.394 USB, Beacon 29.352 USB
MaSat-1 01 Nov 07:53:37 07:55:49 28° 60° (ENE) 07:57:55 437.345 MHz
Hamsat 01 Nov 08:12:04 08:15:29 24° 291° (WNW) 08:18:55 145.90 MHz
SO-67 01 Nov 08:38:34 08:42:01 82° 282° (WNW) 08:45:27 435.3500 MHz FM
HO-68 01 Nov 08:54:03 08:57:15 13° 88° (E) 09:00:26 435.675 MHz FM
STRAND 1 01 Nov 08:56:46 08:59:31 14° 269° (W) 09:02:16 ?
JAS-2 01 Nov 08:58:42 09:03:46 19° 304° (WNW) 09:08:47 435.800 - 435.900 CW/SSB, 435.910 FM
RS-15 01 Nov 09:54:03 09:58:13 13° 264° (W) 10:02:27 29.354 - 29.394 USB, Beacon 29.352 USB
ISS 01 Nov 10:12:41 10:15:48 40° 137° (SE) 10:18:56 145.800 FM
UKube-1 01 Nov 10:21:22 10:24:38 20° 94° (E) 10:27:53 145.840 MHz, 145.915 MHz
KITSAT 1 01 Nov 10:22:10 10:28:49 29° 106° (ESE) 10:35:29 435.175 FM
ZACube-1 01 Nov 10:33:52 10:34:27 10° 90° (E) 10:35:01 437.345 MHz
HO-68 01 Nov 10:38:41 10:45:55 83° 106° (ESE) 10:53:06 435.675 MHz FM
Sapphire 01 Nov 10:39:14 10:42:41 17° 43° (NE) 10:46:07 437.095 MHz 1200 baud AX-25 AFSK
Oscar 11 01 Nov 10:55:01 10:59:12 48° 99° (E) 11:03:22 145.825 FM, Beacon 2401.500 USB
PCSat 01 Nov 11:00:14 11:04:40 25° 49° (NE) 11:09:04 145.825 MHz
SO-50 01 Nov 11:05:54 11:09:54 32° 114° (ESE) 11:14:00 436.795 FM
FUNcube-1 01 Nov 11:13:49 11:17:33 31° 97° (E) 11:21:14 145.950 - 145.970 MHz USB
ISS 01 Nov 11:49:40 11:52:34 27° 334° (NNW) 11:55:29 145.800 FM
UKube-1 01 Nov 11:56:56 12:00:53 34° 290° (WNW) 12:04:48 145.840 MHz, 145.915 MHz
ZACube-1 01 Nov 12:07:07 12:11:15 60° 286° (WNW) 12:15:19 437.345 MHz
KITSAT 1 01 Nov 12:15:42 12:23:40 62° 305° (NW) 12:31:41 435.175 FM
Sapphire 01 Nov 12:21:21 12:26:49 85° 243° (WSW) 12:32:14 437.095 MHz 1200 baud AX-25 AFSK
HO-68 01 Nov 12:27:54 12:32:46 20° 304° (NW) 12:37:37 435.675 MHz FM
JAS-1B 01 Nov 12:30:37 12:31:50 11° 55° (NE) 12:33:02 435.800 - 435.900 CW/SSB
Oscar 11 01 Nov 12:32:29 12:34:58 15° 295° (WNW) 12:37:27 145.825 FM, Beacon 2401.500 USB
PCSat 01 Nov 12:43:07 12:48:21 51° 247° (WSW) 12:53:34 145.825 MHz
SO-50 01 Nov 12:46:29 12:50:26 29° 312° (NW) 12:54:30 436.795 FM
FUNcube-1 01 Nov 12:50:37 12:53:44 21° 293° (WNW) 12:56:49 145.950 - 145.970 MHz USB
Oscar 10/S400 01 Nov 12:56:47 13:15:38 33° 152° (SSE) 13:33:23 145.825 - 145.975 CW/USB, Beacon 145.810 USB
Oscar 16 01 Nov 12:57:34 13:01:03 19° 63° (ENE) 13:04:31 437.025 USB, Beacon 2401.1428
UOSAT-12 01 Nov 13:24:57 13:29:34 78° 121° (ESE) 13:34:17 437.025 FM, 437.400 FM
AO-Echo 01 Nov 13:26:21 13:29:35 17° 62° (ENE) 13:32:54 ?
ISS 01 Nov 13:28:41 13:30:07 12° 354° (N) 13:31:34 145.800 FM
Uribyol 2 01 Nov 13:32:12 13:35:29 17° 62° (ENE) 13:38:47 436.500 FM
ITAMSAT 1 01 Nov 13:40:02 13:43:36 19° 63° (ENE) 13:47:11 435.822 SSB
Oscar 19 01 Nov 13:47:45 13:52:43 52° 72° (ENE) 13:57:41 437.125 CW, 437.150 USB
Saudisat 1A 01 Nov 13:55:00 13:58:01 18° 43° (NE) 14:01:01 436.775 MHz
Sapphire 01 Nov 14:08:57 14:09:21 10° 259° (W) 14:09:45 437.095 MHz 1200 baud AX-25 AFSK
KITSAT 1 01 Nov 14:15:40 14:20:53 18° 329° (NNW) 14:26:07 435.175 FM
JAS-1B 01 Nov 14:15:46 14:21:31 84° 74° (ENE) 14:27:17 435.800 - 435.900 CW/SSB
AO-7 01 Nov 14:20:33 14:22:49 11° 43° (NE) 14:25:06 29.400 - 29.500 MHz
AO-27 01 Nov 14:26:07 14:31:08 50° 71° (ENE) 14:36:11 436.795 MHz FM
Oscar 16 01 Nov 14:34:55 14:39:57 55° 260° (W) 14:45:00 437.025 USB, Beacon 2401.1428
